User: anonymous   Login
Location: Pine Mountain Observatory
(43.7910°N, 120.9377°W)
Time: 00:09:02
(UTC-07:00)
Language:

APEX - Orbit

View from above orbital plane
View from above orbital plane
View from above satellite
View from above satellite

Ground track
Ground track

The orbit data is extracted from the following two-line orbital elements,

1 23191U 94046A   17118.89897026 +.00005538 +00000-0 +18384-3 0  9994
2 23191 069.9241 333.7519 0607500 314.3223 040.9584 14.37618084109435
Epoch (UTC): 28 April 2017 21:34:31
Eccentricity: 0.0607500
inclination: 69.9241°
perigee height: 332 km
apogee height: 1200 km
right ascension of ascending node: 333.7519°
argument of perigee: 314.3223°
revolutions per day: 14.37618084
mean anomaly at epoch: 40.9584°
orbit number at epoch: 10943

The dashed part of the orbit path shows where the satellite is in the earth's shadow,  

DLR